Погода Ворогово

Погода Ворогово : погода сейчас, прогноз погоды и архив. Всё, что Вы хотите узнать о погоде Ворогово!

Хотите узнать прогноз погоды Ворогово? Тогда Вам сюда: Погода Ворогово

Поиск расширенной информации на нашем сайте:

Другие новости

Новости СМИ2

Главная страница сайта

Новости сайта

03.07.2017

Напоминаем, что на нашем специализированном сайте Метеоцентр.Азия вы можете получить высокодетализированные автоматические прогнозы погоды по пунктам России, СНГ и мира в авиационном формате (включающие направление и скорость ветра, видимость, явления погоды, количество и форму облачности, нижнюю и верхнюю границу облачности).


Погода Ворогово - сегодня

Время (UTC), дата Ветер
(°,м/с) 
Видим.   Явления Облачность Т
(°С)
Тd
(°С)
f(%) Тe
(°С)
Pmin
(гПа)
dP
(гПа)
Po
(мм)
O2
(г/м3)
Тmin Tmax R s Состояние
почвы
09 15.08.17 160 (Ю) н/о    н/о 
+16.8 +6.2 50 +17  1020  -0.9  761  288           
12 15.08.17 160 (Ю) н/о    н/о 
+16.2 +6.7 53 +17  1019.7  -0.3  760  288    +17       
15 15.08.17 200 (Ю) н/о    н/о 
+13.4 +7.3 67 +14  1020.2  0.4  761  291           
18 15.08.17 180 (Ю) н/о    н/о 
+13 +7.6 70 +13  1020  -0.2  761  291           
21 15.08.17 190 (Ю) н/о    н/о 
+11.5 +6.1 69 +11  1019.6  -0.4  760  293           
00 16.08.17 180 (Ю) н/о    н/о 
+11.4 +7.3 76 +11  1019.3  -0.3  760  293  +11.1         
03 16.08.17 180 (Ю) н/о    н/о 
+12.3 +7.6 73 +12  1019.2  0.1  760  292           
06 16.08.17 180 (Ю) н/о    н/о 
+14.2 +9.7 74 +16  1018.4  -0.7  759  289           
09 16.08.17 230 (ЮЗ) н/о    н/о 
+16.5 +10.6 68 +19  1017.3  -1.1  759  286           
12 16.08.17 260 (З) н/о    н/о 
+15.4 +10.8 74 +19  1016.8  -0.5  758  287    +16.7       
15 16.08.17 180 (Ю) н/о    н/о 
+14.5 +11.5 82 +18  1016.5  -0.3  758  288           
18 16.08.17 180 (Ю) н/о    н/о 
+14.5 +11.6 83 +18  1015.6  -0.9  757  288           
21 16.08.17 180 (Ю) н/о    н/о 
+13.9 +11.2 84 +17  1015  -0.6  757  288           
00 17.08.17 170 (Ю) н/о    н/о 
+14 +11.1 83 +16  1014.5  -0.5  757  288  +13.6         
03 17.08.17 170 (Ю) н/о    н/о 
+15.7 +11.6 77 +18  1013.8  -0.7  756  286           
06 17.08.17 170 (Ю) н/о    н/о 
+17.8 +12.7 72 +23  1013.4  -0.3  756  283           
09 17.08.17 250 (З) н/о    н/о 
+16.3 +12.8 80 +22  1013.5  0.1  756  285           
12 17.08.17 170 (Ю) н/о    н/о 
+17.4 +13.2 76 +24  1012.6  -0.9  755  283    +18.3       
15 17.08.17 180 (Ю) н/о    н/о 
+15.6 +14.6 94 +24  1013.2  0.6  756  285           
18 17.08.17 210 (ЮЗ) н/о    н/о 
+14.7 +14.7 100 +23  1012.8  -0.4  755  286           
21 17.08.17 200 (Ю) н/о    н/о 
+14.5 +14.5 100 +24  1012.5  -0.3  755  286           
00 18.08.17 350 (С) н/о    н/о 
+12.4 +12.4 100 +16  1013.4  0.8  756  289  +12.4         
03 18.08.17 350 (С) н/о    н/о 
+12.6 +12.3 98 +16  1014  0.7  756  289  +12.3         
06 18.08.17 350 (С) н/о    н/о 
+12.6 +12 96 +16  1015  0.7  757  289           
09 18.08.17 350 (С) н/о    н/о 
+12.4 +12.4 100 +16  1015.9  0.8  758  290           
Время (UTC), дата Ветер
(°,м/с) 
Видим.   Явления Облачность Т
(°С)
Тd
(°С)
f(%) Тe
(°С)
Pmin
(гПа)
dP
(гПа)
Po
(мм)
O2
(г/м3)
Тmin Tmax R s Состояние
почвы

Для получения пояснительной информации подведите курсор к названию столбца.

ПОГОДА Ворогово - архив

Всё, что Вы хотите узнать о погоде Ворогово - удобно и подробно!

Выберите нужную дату (начиная с 1 января 2015* года) и нажмите кнопку "Найти".
Будут отображены архивные сводки погоды по пункту Ворогово, начиная с указанной даты.


Отображать данные в формате CSV (для использования в таблицах Excel)


Внимание! Наш архив погоды предназначен исключительно для личного некоммерческого использования в познавательных целях. Если Вам необходимы официальные справки о состоянии погоды (для производственных, юридических, коммерческих и т.п. целей), обращайтесь в органы Росгидромета.

*Примечание: данная дата относится к архиву по метеостанциям СССР (Россия, СНГ, Балтия).
Архив по метеостанциям Зарубежной Европы и Азии (кроме Китая) хранится 10 дней, по другим регионам земного шара (Китай, Африка, Америка, Австралия, Океания) - 1 день.

Ворогово - район местоположения метеостанции


Название, широта, долгота, высота метеостанции:
Ворогово 61°ш. 89.6°д. 49 м над ур. моря [Российская Федерация]

Дополнительная информация

В oтличие oт бoльшинства пoгoдных сайтoв мы публикуем пoдрoбную метеoинфoрмацию в детальнoм прoфессиoнальнoм фoрмате.

Характеристики температуры и влажнoсти вoздуха измеряются на высoте 2 м в тени вдали oт зданий и деревьев.
Скoрoсть ветра измеряется на высoте 10 м (на урoвне рoста челoвека скoрoсть ветра ниже в 1.5-2 раза). Если метеoстанция нахoдится в гoрoде или в лесу, тo скoрoсть ветра занижена на 2-4 м/с пo сравнению с oткрытым местoм. Скoрoсть ветра над акватoриями крупных рек и oзёр, а также на вершинах хoлмoв на 2-5 м/с выше, чем в oбычных услoвиях.
Атмoсфернoе давление в разных тoчках местнoсти мoжет значительнo oтличаться oт давления на метеoстанции, в зависимoсти oт услoвий рельефа (при пoдъёме на 10 м давление пoнижается примернo на 1 мм рт.ст.).